| time (UTC) | temp F | wind direction | speed knots | gust knots | rain 1hr in | rain 24hr in | rain mn in | humidity % | barometer mb |
| 20260906121610 | 68 | 0 | 0.0 | 0.0 | 0.00 | 0.00 | 0.00 | 88 | 1018.9 |
| 20260906120112 | 68 | 0 | 0.0 | 0.9 | 0.00 | 0.00 | 0.00 | 89 | 1018.7 |
| 20260906114612 | 68 | 0 | 0.0 | 0.0 | 0.00 | 0.00 | 0.00 | 90 | 1018.5 |
| 20260906113108 | 67 | 0 | 0.0 | 0.0 | 0.00 | 0.00 | 0.00 | 91 | 1018.4 |
| 20260906111607 | 67 | 0 | 0.0 | 0.0 | 0.00 | 0.00 | 0.00 | 91 | 1018.5 |
| 20260906110104 | 67 | 0 | 0.0 | 0.0 | 0.00 | 0.00 | 0.00 | 92 | 1018.2 |
| 20260906104605 | 67 | 0 | 0.0 | 0.0 | 0.00 | 0.00 | 0.00 | 92 | 1017.9 |
| 20260906103112 | 68 | 0 | 0.0 | 0.0 | 0.00 | 0.00 | 0.00 | 93 | 1017.9 |
| 20260906101604 | 67 | 0 | 0.0 | 0.0 | 0.00 | 0.00 | 0.00 | 93 | 1017.6 |
| 20260906094604 | 67 | 0 | 0.0 | 0.0 | 0.00 | 0.00 | 0.00 | 93 | 1017.6 |
| 20260906093111 | 67 | 0 | 0.0 | 0.0 | 0.00 | 0.00 | 0.00 | 93 | 1017.6 |
| 20260906091606 | 67 | 0 | 0.0 | 0.0 | 0.00 | 0.00 | 0.00 | 93 | 1017.6 |
| 20260906090104 | 67 | 0 | 0.0 | 0.0 | 0.00 | 0.00 | 0.00 | 92 | 1017.5 |
| 20260906084603 | 67 | 0 | 0.0 | 0.0 | 0.00 | 0.00 | 0.00 | 92 | 1017.5 |
| 20260906083105 | 67 | 0 | 0.0 | 0.0 | 0.00 | 0.00 | 0.00 | 92 | 1017.6 |
| 20260906081607 | 67 | 0 | 0.0 | 0.0 | 0.00 | 0.00 | 0.00 | 92 | 1017.5 |
| 20260906080234 | 67 | 0 | 0.0 | 0.0 | 0.00 | 0.00 | 0.00 | 91 | 1017.4 |
| 20260906074602 | 67 | 0 | 0.0 | 0.0 | 0.00 | 0.00 | 0.00 | 91 | 1017.3 |
| 20260906073101 | 67 | 0 | 0.0 | 0.0 | 0.00 | 0.00 | 0.00 | 90 | 1017.5 |
| 20260906071606 | 68 | 0 | 0.0 | 0.0 | 0.00 | 0.00 | 0.00 | 90 | 1017.4 |
| 20260906070105 | 68 | 0 | 0.0 | 0.0 | 0.00 | 0.00 | 0.00 | 90 | 1017.5 |
| 20260906064602 | 69 | 0 | 0.0 | 0.0 | 0.00 | 0.00 | 0.00 | 89 | 1017.5 |
| 20260906063101 | 69 | 0 | 0.0 | 0.0 | 0.00 | 0.00 | 0.00 | 89 | 1017.6 |
| 20260906061626 | 69 | 0 | 0.0 | 0.0 | 0.00 | 0.00 | 0.00 | 88 | 1017.6 |
| 20260906060123 | 70 | 0 | 0.0 | 0.9 | 0.00 | 0.00 | 0.00 | 88 | 1017.5 |
| 20260906054604 | 70 | 0 | 0.0 | 0.9 | 0.00 | 0.00 | 0.00 | 87 | 1017.7 |
| 20260906053102 | 70 | 74 | 0.0 | 1.7 | 0.00 | 0.00 | 0.00 | 88 | 1017.3 |
| 20260906051610 | 70 | 0 | 0.0 | 0.9 | 0.00 | 0.00 | 0.00 | 89 | 1017.3 |
| 20260906050106 | 70 | 0 | 0.0 | 1.7 | 0.00 | 0.00 | 0.00 | 89 | 1017.1 |
| 20260906044606 | 70 | 0 | 0.0 | 3.5 | 0.00 | 0.00 | 0.00 | 90 | 1017.0 |
| 20260906043107 | 70 | 0 | 0.0 | 2.6 | 0.00 | 0.00 | 0.00 | 90 | 1017.0 |
| 20260906041605 | 70 | 77 | 0.0 | 4.3 | 0.00 | 0.00 | 0.00 | 90 | 1016.7 |
| 20260906040129 | 70 | 79 | 0.0 | 3.5 | 0.00 | 0.00 | 0.00 | 90 | 1016.7 |
| 20260906034607 | 70 | 98 | 0.0 | 3.5 | 0.00 | 0.00 | 0.00 | 90 | 1016.6 |
| 20260906033111 | 70 | 80 | 0.0 | 6.1 | 0.00 | 0.00 | 0.00 | 90 | 1016.5 |
| 20260906031609 | 70 | 107 | 0.0 | 8.7 | 0.00 | 0.00 | 0.00 | 90 | 1016.5 |
| 20260906030116 | 70 | 0 | 0.9 | 10.4 | 0.00 | 0.00 | 0.00 | 90 | 1016.6 |
| 20260906024608 | 70 | 0 | 0.9 | 6.1 | 0.00 | 0.00 | 0.00 | 91 | 1016.6 |
| 20260906023110 | 70 | 90 | 0.9 | 7.0 | 0.00 | 0.00 | 0.00 | 91 | 1016.4 |
| 20260906021611 | 70 | 40 | 0.0 | 5.2 | 0.00 | 0.00 | 0.00 | 90 | 1016.7 |
| 20260906020107 | 70 | 0 | 0.0 | 7.0 | 0.00 | 0.00 | 0.00 | 90 | 1016.8 |
| 20260906014608 | 70 | 0 | 0.0 | 3.5 | 0.00 | 0.00 | 0.00 | 90 | 1016.7 |
| 20260906013103 | 70 | 0 | 0.0 | 5.2 | 0.00 | 0.00 | 0.00 | 90 | 1016.7 |
| 20260906011607 | 71 | 73 | 0.0 | 5.2 | 0.00 | 0.00 | 0.00 | 89 | 1016.5 |
| 20260906010108 | 71 | 88 | 0.0 | 7.8 | 0.00 | 0.00 | 0.00 | 88 | 1016.3 |
| 20260906004607 | 71 | 69 | 0.0 | 8.7 | 0.00 | 0.00 | 0.00 | 88 | 1016.1 |
| 20260906003104 | 70 | 48 | 0.0 | 10.4 | 0.00 | 0.00 | 0.00 | 88 | 1016.1 |
| 20260906001606 | 71 | 53 | 0.9 | 10.4 | 0.00 | 0.00 | 0.00 | 89 | 1016.1 |
| 20260906000111 | 71 | 0 | 0.0 | 8.7 | 0.00 | 0.00 | 0.00 | 89 | 1016.2 |
| 20260905234606 | 71 | 0 | 0.0 | 8.7 | 0.00 | 0.00 | 0.00 | 89 | 1016.1 |
| 20260905233120 | 71 | 0 | 1.7 | 8.7 | 0.00 | 0.00 | 0.00 | 88 | 1016.1 |
| 20260905231608 | 71 | 0 | 0.9 | 8.7 | 0.00 | 0.00 | 0.00 | 88 | 1016.0 |
| 20260905230109 | 71 | 128 | 0.9 | 10.4 | 0.00 | 0.00 | 0.00 | 88 | 1016.0 |
| 20260905224606 | 71 | 89 | 0.9 | 10.4 | 0.00 | 0.00 | 0.00 | 88 | 1015.9 |
| 20260905223107 | 71 | 30 | 0.9 | 8.7 | 0.00 | 0.00 | 0.00 | 88 | 1016.1 |
| 20260905221608 | 71 | 32 | 0.0 | 7.0 | 0.00 | 0.00 | 0.00 | 87 | 1016.1 |
| 20260905220106 | 72 | 0 | 0.9 | 7.8 | 0.00 | 0.00 | 0.00 | 87 | 1015.9 |
| 20260905214617 | 72 | 0 | 1.7 | 8.7 | 0.00 | 0.00 | 0.00 | 88 | 1015.6 |
| 20260905213113 | 73 | 0 | 0.9 | 6.1 | 0.00 | 0.00 | 0.00 | 88 | 1015.4 |
| 20260905211614 | 73 | 0 | 0.0 | 3.5 | 0.00 | 0.00 | 0.00 | 88 | 1015.3 |
| 20260905210114 | 73 | 0 | 0.0 | 6.1 | 0.00 | 0.00 | 0.00 | 88 | 1015.3 |
| 20260905204607 | 74 | 84 | 0.9 | 7.8 | 0.00 | 0.00 | 0.00 | 87 | 1015.2 |
| 20260905203107 | 74 | 0 | 0.9 | 6.1 | 0.00 | 0.00 | 0.00 | 86 | 1015.2 |
| 20260905201608 | 74 | 103 | 1.7 | 8.7 | 0.00 | 0.00 | 0.00 | 86 | 1015.3 |
| 20260905200104 | 74 | 0 | 1.7 | 9.6 | 0.00 | 0.00 | 0.00 | 86 | 1015.3 |
| 20260905194608 | 74 | 78 | 1.7 | 6.1 | 0.00 | 0.00 | 0.00 | 87 | 1015.4 |
| 20260905193105 | 73 | 55 | 1.7 | 5.2 | 0.00 | 0.00 | 0.00 | 87 | 1015.6 |
| 20260905191606 | 73 | 51 | 0.9 | 5.2 | 0.00 | 0.00 | 0.00 | 87 | 1015.6 |
| 20260905190107 | 74 | 0 | 0.0 | 6.1 | 0.00 | 0.00 | 0.00 | 87 | 1015.5 |
| 20260905184611 | 74 | 0 | 0.0 | 7.8 | 0.00 | 0.07 | 0.00 | 87 | 1015.8 |
| 20260905183119 | 74 | 0 | 0.0 | 5.2 | 0.00 | 0.07 | 0.00 | 86 | 1015.7 |
| 20260905181606 | 73 | 65 | 0.9 | 7.0 | 0.00 | 0.07 | 0.00 | 88 | 1015.8 |
| 20260905180105 | 73 | 0 | 1.7 | 8.7 | 0.00 | 0.07 | 0.00 | 87 | 1015.7 |
| 20260905174601 | 73 | 67 | 0.0 | 7.0 | 0.00 | 0.19 | 0.00 | 87 | 1015.5 |
| 20260905173113 | 74 | 0 | 0.9 | 7.8 | 0.00 | 0.19 | 0.00 | 85 | 1015.6 |
| 20260905171604 | 75 | 0 | 0.9 | 7.0 | 0.00 | 0.19 | 0.00 | 85 | 1015.6 |
| 20260905170104 | 74 | 88 | 0.0 | 4.3 | 0.00 | 0.19 | 0.00 | 85 | 1015.7 |
| 20260905164606 | 74 | 52 | 0.0 | 5.2 | 0.00 | 0.19 | 0.00 | 86 | 1015.8 |
| 20260905163109 | 74 | 0 | 0.9 | 7.8 | 0.00 | 0.19 | 0.00 | 87 | 1015.8 |
| 20260905161605 | 73 | 15 | 0.9 | 7.0 | 0.00 | 0.19 | 0.00 | 88 | 1015.9 |
| 20260905154611 | 73 | 0 | 0.9 | 7.0 | 0.00 | 0.19 | 0.00 | 89 | 1015.5 |
| 20260905153119 | 72 | 0 | 0.9 | 5.2 | 0.00 | 0.19 | 0.00 | 90 | 1015.3 |
| 20260905151619 | 72 | 51 | 0.9 | 5.2 | 0.00 | 0.19 | 0.00 | 91 | 1015.3 |
| 20260905150117 | 72 | 46 | 2.6 | 8.7 | 0.00 | 0.19 | 0.00 | 92 | 1015.1 |
| 20260905144624 | 72 | 0 | 0.0 | 7.8 | 0.00 | 0.19 | 0.00 | 93 | 1015.0 |
| 20260905143116 | 71 | 94 | 0.0 | 7.8 | 0.00 | 0.19 | 0.00 | 93 | 1014.8 |
| 20260905141631 | 71 | 58 | 0.0 | 7.8 | 0.00 | 0.19 | 0.00 | 94 | 1014.7 |
| 20260905140109 | 71 | 0 | 0.9 | 6.1 | 0.00 | 0.19 | 0.00 | 94 | 1014.6 |
| 20260905134603 | 71 | 0 | 0.0 | 10.4 | 0.00 | 0.19 | 0.00 | 94 | 1014.6 |
| 20260905133104 | 71 | 32 | 1.7 | 7.8 | 0.00 | 0.19 | 0.00 | 94 | 1014.9 |
| 20260905131618 | 71 | 14 | 2.6 | 8.7 | 0.00 | 0.19 | 0.00 | 94 | 1014.8 |
| 20260905130107 | 71 | 0 | 0.9 | 4.3 | 0.00 | 0.19 | 0.00 | 94 | 1014.5 |
| 20260905124607 | 72 | 45 | 0.0 | 4.3 | 0.00 | 0.19 | 0.00 | 95 | 1014.3 |
| 20260905123111 | 72 | 0 | 0.0 | 4.3 | 0.00 | 0.19 | 0.00 | 94 | 1014.0 |